When you browse on this site, cookies collect data to enhance your experience and personalize the content and advertising you see.
Visit our Privacy Policy to learn more. By continuing to use the site, you agree to this use of cookies and data.
  • In Österreich
  • Länderverzeichnis
  • Für 7 Tage
  • Wassertemperatur
  • Wetterkarte
  • News
  • Widgets
  • user-avatar
    Anmelden

    Stündliche Wetter Lezhe

    Heute, 7 Dezember, Samstag

    Zeit Temperatur Niederschläge Wind Luftdruck Luftfeuchtigkeit
    00:00 +10°C° 3.6 mm 2 m/S 740 mmHg 95%
    01:00 +11°C° 0 mm 1 m/S 740 mmHg 93%
    02:00 +10°C° 0.9 mm 2 m/S 740 mmHg 93%
    03:00 +10°C° 0.9 mm 2 m/S 739 mmHg 92%
    04:00 +10°C° 0.9 mm 2 m/S 739 mmHg 91%
    05:00 +10°C° 0.8 mm 2 m/S 739 mmHg 91%
    06:00 +11°C° 0.8 mm 1 m/S 739 mmHg 91%
    07:00 +11°C° 0 mm 1 m/S 739 mmHg 90%
    08:00 +11°C° 0.9 mm 1 m/S 739 mmHg 90%
    09:00 +12°C° 0.9 mm 1 m/S 739 mmHg 91%
    10:00 +12°C° 0.9 mm 1 m/S 739 mmHg 91%
    11:00 +13°C° 0.2 mm 1 m/S 739 mmHg 87%
    12:00 +13°C° 0.2 mm 1 m/S 739 mmHg 83%
    13:00 +14°C° 0 mm 1 m/S 739 mmHg 79%
    14:00 +13°C° 0 mm 1 m/S 739 mmHg 82%
    15:00 +13°C° 0 mm 1 m/S 739 mmHg 85%
    16:00 +12°C° 0 mm 1 m/S 739 mmHg 88%
    17:00 +11°C° 0 mm 1 m/S 739 mmHg 89%
    18:00 +11°C° 0 mm 1 m/S 739 mmHg 90%
    19:00 +10°C° 0 mm 1 m/S 739 mmHg 91%
    20:00 +10°C° 0 mm 1 m/S 740 mmHg 91%
    21:00 +10°C° 0 mm 1 m/S 740 mmHg 91%
    22:00 +10°C° 0 mm 1 m/S 740 mmHg 91%
    23:00 +10°C° 0 mm 1 m/S 740 mmHg 90%

    Morgen, 8 Dezember, Sonntag

    Zeit Temperatur Niederschläge Wind Luftdruck Luftfeuchtigkeit
    00:00 +10°C° 0 mm 1 m/S 740 mmHg 90%
    01:00 +10°C° 0 mm 1 m/S 740 mmHg 89%
    02:00 +9°C° 0 mm 1 m/S 740 mmHg 89%
    03:00 +9°C° 0 mm 1 m/S 740 mmHg 88%
    04:00 +9°C° 0 mm 1 m/S 740 mmHg 87%
    05:00 +9°C° 0 mm 1 m/S 740 mmHg 87%
    06:00 +8°C° 0 mm 2 m/S 740 mmHg 86%
    07:00 +7°C° 0 mm 2 m/S 740 mmHg 85%
    08:00 +10°C° 0 mm 1 m/S 740 mmHg 82%
    09:00 +11°C° 0 mm 1 m/S 741 mmHg 78%
    10:00 +13°C° 0 mm 1 m/S 741 mmHg 74%
    11:00 +13°C° 0 mm 1 m/S 740 mmHg 72%
    12:00 +14°C° 0 mm 1 m/S 740 mmHg 70%
    13:00 +13°C° 0 mm 0 m/S 740 mmHg 68%
    14:00 +12°C° 0 mm 0 m/S 740 mmHg 73%
    15:00 +11°C° 0 mm 0 m/S 739 mmHg 78%
    16:00 +10°C° 0 mm 0 m/S 739 mmHg 83%
    17:00 +10°C° 0 mm 0 m/S 739 mmHg 84%
    18:00 +9°C° 0 mm 0 m/S 739 mmHg 85%
    19:00 +10°C° 0 mm 1 m/S 739 mmHg 86%
    20:00 +10°C° 0 mm 1 m/S 739 mmHg 86%
    21:00 +9°C° 0 mm 1 m/S 739 mmHg 86%
    22:00 +9°C° 0 mm 1 m/S 739 mmHg 86%
    23:00 +9°C° 0 mm 1 m/S 739 mmHg 87%

    übermorgen, 9 Dezember, Montag

    Zeit Temperatur Niederschläge Wind Luftdruck Luftfeuchtigkeit
    00:00 +9°C° 0 mm 1 m/S 739 mmHg 87%
    01:00 +9°C° 0 mm 1 m/S 738 mmHg 87%
    02:00 +9°C° 0 mm 1 m/S 738 mmHg 87%
    03:00 +9°C° 0 mm 1 m/S 737 mmHg 86%
    04:00 +8°C° 0 mm 1 m/S 737 mmHg 85%
    05:00 +8°C° 0 mm 1 m/S 737 mmHg 85%
    06:00 +8°C° 0 mm 1 m/S 737 mmHg 84%
    07:00 +8°C° 0 mm 1 m/S 737 mmHg 83%
    08:00 +10°C° 0 mm 1 m/S 737 mmHg 79%
    09:00 +11°C° 0 mm 1 m/S 736 mmHg 75%
    10:00 +13°C° 0 mm 1 m/S 736 mmHg 71%
    11:00 +13°C° 0 mm 1 m/S 736 mmHg 70%
    12:00 +14°C° 0 mm 1 m/S 735 mmHg 68%
    13:00 +14°C° 0 mm 1 m/S 735 mmHg 66%
    14:00 +13°C° 0 mm 1 m/S 734 mmHg 71%
    15:00 +12°C° 0 mm 1 m/S 734 mmHg 75%
    16:00 +11°C° 0 mm 1 m/S 734 mmHg 79%
    17:00 +11°C° 0.1 mm 1 m/S 733 mmHg 79%
    18:00 +11°C° 0.1 mm 1 m/S 733 mmHg 78%
    19:00 +10°C° 0.1 mm 2 m/S 733 mmHg 78%
    20:00 +10°C° 0.2 mm 2 m/S 733 mmHg 78%
    21:00 +10°C° 0.2 mm 2 m/S 733 mmHg 78%
    22:00 +10°C° 0.2 mm 2 m/S 733 mmHg 78%
    23:00 +10°C° 0.2 mm 2 m/S 733 mmHg 78%

    10 Dezember, Dienstag

    Zeit Temperatur Niederschläge Wind Luftdruck Luftfeuchtigkeit
    00:00 +10°C° 0.2 mm 2 m/S 733 mmHg 79%
    01:00 +10°C° 0.2 mm 2 m/S 733 mmHg 79%
    02:00 +10°C° 0.1 mm 2 m/S 732 mmHg 80%
    03:00 +9°C° 0.1 mm 2 m/S 732 mmHg 80%
    04:00 +9°C° 0.1 mm 2 m/S 732 mmHg 80%
    05:00 +9°C° 0 mm 2 m/S 732 mmHg 80%
    06:00 +8°C° 0 mm 2 m/S 732 mmHg 81%
    07:00 +8°C° 0 mm 2 m/S 732 mmHg 81%
    08:00 +9°C° 0 mm 2 m/S 732 mmHg 79%
    09:00 +10°C° 0 mm 3 m/S 732 mmHg 78%
    10:00 +11°C° 0 mm 3 m/S 733 mmHg 76%
    11:00 +11°C° 0 mm 3 m/S 733 mmHg 74%
    12:00 +12°C° 0 mm 3 m/S 732 mmHg 72%
    13:00 +12°C° 0 mm 3 m/S 732 mmHg 70%
    14:00 +11°C° 0 mm 4 m/S 732 mmHg 72%
    15:00 +10°C° 0 mm 5 m/S 733 mmHg 75%
    16:00 +9°C° 0 mm 5 m/S 733 mmHg 77%
    17:00 +8°C° 0 mm 6 m/S 733 mmHg 78%
    18:00 +8°C° 0 mm 6 m/S 733 mmHg 78%
    19:00 +6°C° 0 mm 7 m/S 734 mmHg 79%
    20:00 +6°C° 0 mm 7 m/S 734 mmHg 78%
    21:00 +6°C° 0 mm 7 m/S 734 mmHg 77%
    22:00 +6°C° 0 mm 7 m/S 735 mmHg 76%
    23:00 +5°C° 0 mm 7 m/S 735 mmHg 75%

    11 Dezember, Mittwoch

    Zeit Temperatur Niederschläge Wind Luftdruck Luftfeuchtigkeit
    00:00 +5°C° 0 mm 7 m/S 735 mmHg 74%
    01:00 +5°C° 0 mm 7 m/S 735 mmHg 73%
    02:00 +4°C° 0 mm 6 m/S 735 mmHg 72%
    03:00 +4°C° 0 mm 6 m/S 735 mmHg 72%
    04:00 +4°C° 0 mm 6 m/S 735 mmHg 72%
    05:00 +3°C° 0 mm 6 m/S 735 mmHg 72%
    06:00 +3°C° 0 mm 6 m/S 735 mmHg 73%
    07:00 +3°C° 0 mm 7 m/S 735 mmHg 73%
    08:00 +4°C° 0 mm 6 m/S 735 mmHg 71%
    09:00 +5°C° 0 mm 6 m/S 736 mmHg 69%
    10:00 +5°C° 0 mm 6 m/S 736 mmHg 67%
    11:00 +7°C° 0 mm 6 m/S 735 mmHg 66%
    12:00 +7°C° 0 mm 6 m/S 735 mmHg 65%
    13:00 +8°C° 0 mm 6 m/S 735 mmHg 64%
    14:00 +7°C° 0 mm 5 m/S 735 mmHg 66%
    15:00 +6°C° 0 mm 5 m/S 735 mmHg 69%
    16:00 +6°C° 0 mm 5 m/S 734 mmHg 71%
    17:00 +5°C° 0 mm 4 m/S 735 mmHg 73%
    18:00 +5°C° 0 mm 4 m/S 735 mmHg 74%
    19:00 +4°C° 0 mm 4 m/S 735 mmHg 76%
    20:00 +4°C° 0 mm 4 m/S 735 mmHg 76%
    21:00 +4°C° 0 mm 4 m/S 735 mmHg 77%
    22:00 +4°C° 0 mm 3 m/S 735 mmHg 77%
    23:00 +3°C° 0 mm 3 m/S 735 mmHg 78%

    12 Dezember, Donnerstag

    Zeit Temperatur Niederschläge Wind Luftdruck Luftfeuchtigkeit
    00:00 +3°C° 0 mm 3 m/S 735 mmHg 78%
    01:00 +3°C° 0 mm 3 m/S 734 mmHg 78%
    02:00 +3°C° 0 mm 3 m/S 734 mmHg 79%
    03:00 +4°C° 0 mm 2 m/S 734 mmHg 79%
    04:00 +4°C° 0 mm 2 m/S 734 mmHg 79%
    05:00 +4°C° 0 mm 2 m/S 734 mmHg 78%
    06:00 +4°C° 0 mm 2 m/S 734 mmHg 78%
    07:00 +4°C° 0 mm 2 m/S 734 mmHg 78%
    08:00 +6°C° 0 mm 2 m/S 734 mmHg 73%
    09:00 +9°C° 0 mm 1 m/S 734 mmHg 68%
    10:00 +10°C° 0 mm 1 m/S 734 mmHg 64%
    11:00 +11°C° 0 mm 1 m/S 733 mmHg 63%
    12:00 +11°C° 0 mm 1 m/S 733 mmHg 63%
    13:00 +12°C° 0 mm 1 m/S 733 mmHg 62%
    14:00 +11°C° 0 mm 1 m/S 733 mmHg 66%
    15:00 +11°C° 0 mm 1 m/S 733 mmHg 70%
    16:00 +10°C° 0 mm 1 m/S 733 mmHg 74%
    17:00 +10°C° 0 mm 1 m/S 733 mmHg 76%
    18:00 +10°C° 0 mm 1 m/S 733 mmHg 78%
    19:00 +10°C° 0 mm 1 m/S 733 mmHg 79%
    20:00 +9°C° 0 mm 1 m/S 733 mmHg 81%
    21:00 +9°C° 0 mm 1 m/S 733 mmHg 83%
    22:00 +9°C° 0 mm 1 m/S 733 mmHg 84%
    23:00 +9°C° 0.1 mm 1 m/S 733 mmHg 85%
    Mehr zeigen